Date,TemperatureHighF,TemperatureAvgF,TemperatureLowF,DewpointHighF,DewpointAvgF,DewpointLowF,HumidityHigh,HumidityAvg,HumidityLow,PressureMaxIn,PressureMinIn,WindSpeedMaxMPH,WindSpeedAvgMPH,GustSpeedMaxMPH,PrecipitationSumIn
2013-1-1,33.1,25.6,10.4,-3.6,-8.6,-19.3,24,21,20,28.79,28.58,16,-364,16,0.00
2013-1-2,24.3,14.3,1.6,-9.0,-16.5,-26.8,24,23,22,29.00,28.73,13,-352,13,0.00
2013-1-3,21.6,7.4,-6.0,-11.3,-22.0,-33.3,24,24,22,29.03,28.76,7,1,7,0.00
2013-1-4,37.4,30.1,17.1,-1.0,-5.7,-14.3,23,20,19,28.79,28.64,17,-13,17,0.00
2013-1-5,36.3,30.9,22.3,-1.6,-5.2,-10.7,22,20,19,29.06,28.70,18,5,18,0.00
2013-1-6,40.3,31.2,21.7,0.2,-5.1,-99.9,24,20,18,29.00,28.70,9,-2,9,0.00
2013-1-7,35.8,26.7,13.8,-1.6,-11.0,-99.9,24,20,19,29.18,28.79,13,3,13,0.00
2013-1-8,46.0,31.7,14.9,3.7,-5.3,-99.9,24,20,17,29.18,29.06,11,2,11,0.04
2013-1-9,43.3,31.7,17.1,2.6,-5.1,-99.9,25,20,18,29.18,28.82,17,2,17,0.08
2013-1-10,42.1,35.7,27.1,1.7,-2.2,-7.7,21,19,18,29.32,28.91,22,4,22,0.04
2013-1-11,39.9,31.3,23.0,5.3,-8.0,-99.9,24,20,19,29.35,28.91,23,-3,23,0.12
2013-1-12,50.7,40.6,35.8,12.0,7.2,2.4,30,25,19,28.97,28.91,15,-93,15,0.00
2013-1-13,53.2,43.7,36.0,18.6,11.4,7.7,31,27,18,28.97,28.76,13,-2,13,0.00
2013-1-14,48.2,41.3,32.0,18.2,6.2,-4.5,30,23,17,29.09,28.70,13,-4,13,0.08
2013-1-15,34.5,30.7,27.0,-2.4,-5.4,-7.7,21,20,20,29.15,29.03,8,-3,8,0.00
2013-1-16,32.2,30.0,27.5,4.3,-0.8,-7.3,30,26,20,29.03,28.61,7,0,7,0.00
2013-1-17,35.8,29.2,21.2,3.3,-4.6,-99.9,31,23,19,28.94,28.64,14,3,14,0.00
2013-1-18,22.5,16.6,10.0,-10.6,-14.6,-19.5,24,23,22,29.18,28.88,15,4,15,0.00
2013-1-19,43.7,35.1,22.5,3.0,-2.7,-10.6,22,19,18,29.06,28.61,11,-11,12,0.04
2013-1-20,45.5,35.1,20.3,3.6,-2.5,-12.4,25,20,17,28.79,28.38,25,5,25,0.00
2013-1-21,23.9,19.5,16.2,-9.3,-13.9,-99.9,23,22,22,28.85,28.58,12,2,12,0.00
2013-1-22,19.2,12.3,7.5,-12.4,-27.7,-99.9,24,20,23,28.88,28.56,16,5,16,0.00
2013-1-23,10.9,4.6,-1.1,-18.7,-24.4,-99.9,24,24,24,28.94,28.85,15,5,15,0.00
2013-1-24,15.6,3.4,-5.6,-14.8,-29.2,-99.9,24,23,24,29.09,28.91,15,-17,15,0.00
2013-1-25,17.1,8.3,1.8,-14.3,-27.7,-99.9,24,22,23,29.15,28.85,10,3,10,0.00
2013-1-26,19.0,8.6,5.2,-12.6,-35.3,-99.9,24,19,23,29.06,28.82,10,2,10,0.00
2013-1-27,26.6,11.8,4.1,-8.0,-34.5,-99.9,24,18,21,29.26,29.06,10,2,10,0.00
2013-1-28,27.7,19.4,9.3,-3.9,-15.4,-99.9,26,22,21,29.24,28.73,17,2,17,0.00
2013-1-29,39.0,32.4,26.1,7.1,1.5,-4.1,31,26,21,28.91,28.76,15,2,20,1.81
2013-1-30,58.5,50.7,36.7,22.3,15.1,3.3,29,24,19,28.85,28.14,20,-47,22,0.39
2013-1-31,60.1,39.6,23.2,22.0,3.4,-10.0,28,22,19,28.41,27.76,31,-1,31,4.02